Weather History for Zephyrhills, FL

Change the Weather History Date:

Thursday, December 13, 2012

  Actual Average (KPCM) Record (KPCM)
Temperature  
Mean Temperature 58 °F -  
Max Temperature 64 °F 74 °F 89 °F (2007)
Min Temperature 53 °F 52 °F 18 °F (1962)
Degree Days  
Heating Degree Days 6    
Growing Degree Days 8 (Base 50)    
Moisture  
Dew Point 58 °F    
Average Humidity 95    
Maximum Humidity 100    
Minimum Humidity 82    
Precipitation  
Precipitation 0.00 in - - ()
Sea Level Pressure  
Sea Level Pressure 30.16 in    
Wind  
Wind Speed - (North)    
Max Wind Speed -    
Max Gust Speed -    
Visibility 8 miles    
Events      
Averages and records for this station are not official NWS values.
T = Trace of Precipitation, MM = Missing Value Source: NWS Daily Summary

Daily Weather History Graph

Daily Weather History Graph

Search for Another Location

Airport:

Trip Planner

Search our weather history database for the weather conditions in past years. The results will help you decide how hot, cold, wet, or windy it might be!

Date:

Astronomy

Dec. 13, 2012 Rise Set
Actual Time 7:11 AM EST 5:34 PM EST
Civil Twilight 6:46 AM EST 6:00 PM EST
Nautical Twilight 6:16 AM EST 6:29 PM EST
Astronomical Twilight 5:48 AM EST 6:58 PM EST
Moon 7:20 AM EST (12/13) 6:13 PM EST (12/13)
Length of Visible Light 11h 13m
Length of Day
10h 22m
New Moon, 0% of the Moon is Illuminated
Dec 13
New Moon
Dec 20
First Quarter
Dec 28
Full
Jan 4
Last Quarter
Jan 11
New

Hourly Weather History & Observations

Time (EST) Temp. Dew Point Humidity Pressure Visibility Wind Dir Wind Speed Gust Speed Precip Events Conditions
12:15 AM 64.4 °F 64.4 °F 100% 30.09 in 1.8 mi North - - N/A   Overcast
12:35 AM 64.4 °F 64.4 °F 100% 30.10 in 1.8 mi North - - N/A   Overcast
12:55 AM 64.4 °F 64.4 °F 100% 30.09 in 1.2 mi North - - N/A   Overcast
1:15 AM 64.4 °F 64.4 °F 100% 30.09 in 1.0 mi North - - N/A   Overcast
1:35 AM 64.4 °F 64.4 °F 100% 30.09 in 2.0 mi North - - N/A   Overcast
1:55 AM 64.4 °F 64.4 °F 100% 30.09 in 1.2 mi North - - N/A   Overcast
2:15 AM 64.4 °F 64.4 °F 100% 30.09 in 1.2 mi North - - N/A   Overcast
2:35 AM 62.6 °F 62.6 °F 100% 30.09 in 3.0 mi North - - N/A   Overcast
2:55 AM 62.6 °F 62.6 °F 100% 30.09 in 5.0 mi North - - N/A   Overcast
3:15 AM 62.6 °F 62.6 °F 100% 30.09 in 3.0 mi North - - N/A   Overcast
3:35 AM 62.6 °F 62.6 °F 100% 30.09 in 7.0 mi North - - N/A   Overcast
3:55 AM 62.6 °F 62.6 °F 100% 30.09 in 7.0 mi North - - N/A   Overcast
4:15 AM 62.6 °F 62.6 °F 100% 30.09 in 7.0 mi North - - N/A   Overcast
4:35 AM 62.6 °F 62.6 °F 100% 30.09 in 5.0 mi North - - N/A   Overcast
4:55 AM 62.6 °F 62.6 °F 100% 30.10 in 5.0 mi North - - N/A   Overcast
5:15 AM 62.6 °F 62.6 °F 100% 30.10 in 4.0 mi North - - N/A   Overcast
5:35 AM 62.6 °F 62.6 °F 100% 30.11 in 4.0 mi North - - N/A   Overcast
5:55 AM 60.8 °F 60.8 °F 100% 30.12 in 5.0 mi North - - N/A   Overcast
6:15 AM 60.8 °F 60.8 °F 100% 30.13 in 5.0 mi North - - N/A   Overcast
6:35 AM 60.8 °F 60.8 °F 100% 30.15 in 7.0 mi North - - N/A   Overcast
6:55 AM 60.8 °F 60.8 °F 100% 30.15 in 5.0 mi North - - N/A   Overcast
7:15 AM 60.8 °F 59.0 °F 94% 30.15 in 7.0 mi North - - N/A   Overcast
7:35 AM 60.8 °F 59.0 °F 94% 30.16 in 10.0 mi North - - N/A   Overcast
7:55 AM 60.8 °F 59.0 °F 94% 30.17 in 10.0 mi North - - N/A   Overcast
8:15 AM 60.8 °F 60.8 °F 100% 30.17 in 10.0 mi North - - N/A   Overcast
8:35 AM 60.8 °F 60.8 °F 100% 30.18 in 10.0 mi North - - N/A   Overcast
8:55 AM 59.0 °F 59.0 °F 100% 30.19 in 10.0 mi North - - N/A   Overcast
9:15 AM 59.0 °F 59.0 °F 100% 30.19 in 10.0 mi North - - N/A   Overcast
9:35 AM 59.0 °F 59.0 °F 100% 30.20 in 5.0 mi North - - N/A   Overcast
9:55 AM 59.0 °F 59.0 °F 100% 30.20 in 3.0 mi North - - N/A   Overcast
10:15 AM 60.8 °F 60.8 °F 100% 30.21 in 7.0 mi North - - N/A   Overcast
10:35 AM 60.8 °F 60.8 °F 100% 30.20 in 10.0 mi North - - N/A   Overcast
10:55 AM 60.8 °F 60.8 °F 100% 30.21 in 10.0 mi North - - N/A   Overcast
11:15 AM 60.8 °F 59.0 °F 94% 30.21 in 10.0 mi North - - N/A   Overcast
11:35 AM 60.8 °F 59.0 °F 94% 30.20 in 10.0 mi North - - N/A   Overcast
11:55 AM 60.8 °F 59.0 °F 94% 30.20 in 10.0 mi North - - N/A   Overcast
12:15 PM 60.8 °F 57.2 °F 88% 30.20 in 10.0 mi North - - N/A   Overcast
12:35 PM 60.8 °F 59.0 °F 94% 30.19 in 10.0 mi North - - N/A   Overcast
12:55 PM 60.8 °F 59.0 °F 94% 30.19 in 10.0 mi North - - N/A   Overcast
1:15 PM 60.8 °F 59.0 °F 94% 30.19 in 10.0 mi North - - N/A   Overcast
1:35 PM 60.8 °F 57.2 °F 88% 30.18 in 10.0 mi North - - N/A   Overcast
1:55 PM 60.8 °F 57.2 °F 88% 30.18 in 10.0 mi North - - N/A   Overcast
2:15 PM 60.8 °F 57.2 °F 88% 30.17 in 10.0 mi North - - N/A   Overcast
2:35 PM 60.8 °F 57.2 °F 88% 30.18 in 10.0 mi North - - N/A   Overcast
2:55 PM 60.8 °F 55.4 °F 82% 30.17 in 10.0 mi North - - N/A   Overcast
3:15 PM 60.8 °F 55.4 °F 82% 30.17 in 10.0 mi North - - N/A   Overcast
3:35 PM 60.8 °F 55.4 °F 82% 30.17 in 10.0 mi North - - N/A   Overcast
3:55 PM 60.8 °F 55.4 °F 82% 30.17 in 10.0 mi North - - N/A   Overcast
4:15 PM 59.0 °F 55.4 °F 88% 30.17 in 10.0 mi North - - N/A   Overcast
4:35 PM 59.0 °F 55.4 °F 88% 30.17 in 10.0 mi North - - N/A   Overcast
4:55 PM 59.0 °F 53.6 °F 82% 30.18 in 10.0 mi North - - N/A   Overcast
5:15 PM 59.0 °F 53.6 °F 82% 30.18 in 10.0 mi North - - N/A   Overcast
5:35 PM 57.2 °F 53.6 °F 88% 30.19 in 10.0 mi North - - N/A   Overcast
8:15 PM 53.6 °F 51.8 °F 94% 30.22 in 10.0 mi North - - N/A   Overcast
8:35 PM 55.4 °F 51.8 °F 88% 30.23 in 10.0 mi North - - N/A   Overcast
9:15 PM 53.6 °F 51.8 °F 94% 30.23 in 10.0 mi North - - N/A   Overcast
9:35 PM 53.6 °F 51.8 °F 94% 30.23 in 10.0 mi North - - N/A   Overcast
9:55 PM 53.6 °F 51.8 °F 94% 30.23 in 10.0 mi North - - N/A   Overcast
10:15 PM 53.6 °F 51.8 °F 94% 30.23 in 10.0 mi North - - N/A   Overcast
10:35 PM 53.6 °F 51.8 °F 94% 30.23 in 10.0 mi North - - N/A   Overcast
10:55 PM 53.6 °F 51.8 °F 94% 30.22 in 10.0 mi North - - N/A   Overcast
11:15 PM 53.6 °F 51.8 °F 94% 30.23 in 10.0 mi North - - N/A   Overcast
11:35 PM 53.6 °F 51.8 °F 94% 30.22 in 10.0 mi North - - N/A   Overcast
11:55 PM 53.6 °F 51.8 °F 94% 30.21 in 10.0 mi North - - N/A   Overcast